Stations météo

réclame
Mon MeteoGroup
Falsterbo A, Suède (2615): Température de l'air & dewpoint: 13.11.2017 19:00:00 - 19.11.2017 19:00:00 (CET)Falsterbo A, Suède (2615): Vitesse du vent & gusts: 13.11.2017 19:00:00 - 19.11.2017 19:00:00 (CET)Falsterbo A, Suède (2615): Direction du vent: 13.11.2017 19:00:00 - 19.11.2017 19:00:00 (CET)Falsterbo A, Suède (2615): reduced air pressure: 13.11.2017 19:00:00 - 19.11.2017 19:00:00 (CET)Falsterbo A, Suède (2615): visibility: 13.11.2017 19:00:00 - 19.11.2017 19:00:00 (CET)Falsterbo A, Suède (2615): Quantités de précipitations: 13.11.2017 19:00:00 - 19.11.2017 19:00:00 (CET)
Date & Time tt [°C] td [°C] ff [km/h] ff [knt] fx [km/h] fx [knt] dd ppp [hPa] vv [km] rr [mm]
19.11.2017 19:00:00 - - - - - - - - - -
19.11.2017 18:00:00 4,0 2,5 58 31 73 39 NW 1002,5 14 0,2
19.11.2017 17:00:00 4,0 2,0 56 31 73 39 NNW 1001,1 33 0,0
19.11.2017 16:00:00 4,3 2,5 56 31 79 43 NW 999,5 36 0,0
19.11.2017 15:00:00 4,7 1,9 61 33 78 42 NW 998,4 46 0,0
19.11.2017 14:00:00 4,7 2,6 56 31 75 41 NW 998,2 33 0,0
19.11.2017 13:00:00 5,1 3,1 56 30 79 43 WNW 997,3 39 0,2
19.11.2017 12:00:00 5,2 3,1 55 30 72 39 NW 996,9 21 0,0
19.11.2017 11:00:00 5,5 3,2 56 31 69 38 WNW 996,4 41 0,0
19.11.2017 10:00:00 6,4 3,6 51 28 64 35 WNW 995,9 46 0,0
19.11.2017 09:00:00 6,2 4,4 44 24 61 33 W 995,3 35 0,0
19.11.2017 08:00:00 6,2 4,0 46 25 59 32 W 995,2 41 0,0
19.11.2017 07:00:00 6,2 3,9 42 23 59 32 WSW 995,1 18 0,0
19.11.2017 06:00:00 6,4 4,2 42 23 61 33 WSW 995,5 23 0,0
19.11.2017 05:00:00 6,3 4,3 49 27 61 33 WSW 996,3 32 0,0
19.11.2017 04:00:00 5,6 3,6 51 28 74 40 WSW 996,8 18 0,1
19.11.2017 03:00:00 6,4 3,2 51 28 65 35 WSW 997,2 41 0,0
19.11.2017 02:00:00 6,2 3,2 51 27 67 36 WSW 998,3 43 0,0
19.11.2017 01:00:00 6,5 3,6 50 27 67 36 WSW 998,9 30 0,0
19.11.2017 00:00:00 6,4 3,9 46 25 65 35 WSW 999,7 45 0,0
18.11.2017 23:00:00 6,1 4,1 42 23 63 34 WSW 1000,3 42 0,0
18.11.2017 22:00:00 5,6 3,6 53 29 69 37 W 1001,0 9 0,1
18.11.2017 21:00:00 6,0 3,7 48 26 59 32 WSW 1001,0 37 0,0
18.11.2017 20:00:00 6,0 3,3 44 24 60 33 WSW 1001,3 38 0,0
18.11.2017 19:00:00 5,9 3,2 46 25 61 33 WSW 1001,8 41 0,0
18.11.2017 18:00:00 5,9 3,2 45 25 57 31 W 1002,2 46 0,0
18.11.2017 17:00:00 5,6 3,1 42 23 56 30 W 1002,4 50 0,0
18.11.2017 16:00:00 6,1 2,9 44 24 57 31 W 1002,6 46 0,0
18.11.2017 15:00:00 6,1 3,3 44 24 57 31 W 1002,6 50 0,0
18.11.2017 14:00:00 5,8 3,3 42 23 53 28 W 1002,4 50 0,0
18.11.2017 13:00:00 5,6 3,4 43 23 54 29 W 1002,8 19 0,0
18.11.2017 12:00:00 6,2 4,7 40 22 69 38 W 1002,9 30 1,2
18.11.2017 11:00:00 6,9 5,4 51 28 68 37 SW 1003,1 14 0,2
18.11.2017 10:00:00 6,9 5,5 48 26 66 36 SW 1004,4 15 0,6
18.11.2017 09:00:00 6,9 5,2 50 27 63 34 SW 1005,7 25 0,2
18.11.2017 08:00:00 7,0 5,6 48 26 68 37 SW 1006,9 21 1,0
18.11.2017 07:00:00 7,1 5,6 49 26 64 34 SW 1007,9 16 0,1
18.11.2017 06:00:00 7,0 5,3 44 24 58 31 SW 1009,2 28 0,0
18.11.2017 05:00:00 7,1 5,2 45 25 61 33 SW 1010,6 30 0,0
18.11.2017 04:00:00 7,1 5,2 47 26 59 32 SW 1011,5 29 0,0
18.11.2017 03:00:00 7,1 5,4 45 24 61 33 SW 1012,9 27 0,0
18.11.2017 02:00:00 7,2 5,3 46 25 61 33 SW 1013,9 32 0,0
18.11.2017 01:00:00 7,3 5,3 48 26 61 33 SW 1014,7 37 0,0
18.11.2017 00:00:00 7,3 5,3 45 24 55 30 SW 1015,6 40 0,0
17.11.2017 23:00:00 7,2 5,2 41 22 50 27 SW 1016,5 44 0,0
17.11.2017 22:00:00 7,4 5,2 36 20 48 26 SW 1017,2 42 0,0
17.11.2017 21:00:00 7,6 5,1 38 20 52 28 WSW 1017,8 43 0,0
17.11.2017 20:00:00 7,5 5,3 42 23 52 28 WSW 1018,5 45 0,0
17.11.2017 19:00:00 7,5 5,1 40 21 51 27 WSW 1018,8 41 0,0
17.11.2017 18:00:00 7,5 5,1 39 21 47 25 WSW 1019,5 45 0,0
17.11.2017 17:00:00 7,5 4,8 33 18 40 21 WSW 1019,8 38 0,0
17.11.2017 16:00:00 7,7 4,5 33 18 42 23 WSW 1020,1 36 0,0
17.11.2017 15:00:00 8,0 4,6 35 19 45 24 W 1020,2 44 0,0
17.11.2017 14:00:00 8,2 4,6 32 17 43 23 W 1020,6 33 0,0
17.11.2017 13:00:00 8,2 4,6 36 19 46 25 W 1020,9 31 0,0
17.11.2017 12:00:00 7,5 4,6 39 21 50 27 W 1021,1 34 0,0
17.11.2017 11:00:00 7,2 4,5 39 21 53 29 W 1021,1 26 0,0
17.11.2017 10:00:00 7,0 4,3 41 22 50 27 W 1020,6 18 0,0
17.11.2017 09:00:00 6,7 4,4 42 23 49 26 W 1020,2 23 0,0
17.11.2017 08:00:00 7,0 4,5 38 20 50 27 W 1019,9 24 0,0
17.11.2017 07:00:00 6,7 4,2 38 21 47 26 W 1019,4 21 0,0
17.11.2017 06:00:00 7,3 3,9 38 21 53 28 W 1019,1 26 0,0
17.11.2017 05:00:00 7,3 4,1 38 21 54 29 W 1018,6 22 0,0
17.11.2017 04:00:00 7,4 4,7 41 22 50 27 W 1018,2 22 0,0
17.11.2017 03:00:00 7,7 5,2 36 20 54 29 W 1017,8 28 0,0
17.11.2017 02:00:00 7,9 5,5 39 21 50 27 WNW 1017,1 41 0,0
17.11.2017 01:00:00 8,1 6,2 34 19 42 23 NW 1016,5 50 0,2
17.11.2017 00:00:00 8,1 6,9 40 22 63 34 WSW 1016,2 2,9 0,4
16.11.2017 23:00:00 8,8 8,0 35 19 48 26 SW 1015,5 5 0,0
16.11.2017 22:00:00 8,7 7,9 36 19 50 27 SW 1015,8 7 0,0
16.11.2017 21:00:00 8,7 7,8 36 19 45 25 SW 1016,3 6 0,0
16.11.2017 20:00:00 8,7 7,8 35 19 49 27 SSW 1016,7 8 0,0
16.11.2017 19:00:00 8,8 7,7 35 19 46 25 SSW 1017,1 12 0,0
16.11.2017 18:00:00 8,7 7,6 32 17 46 25 SSW 1017,7 15 0,0
16.11.2017 17:00:00 8,7 7,6 31 17 45 24 SSW 1018,1 17 0,0
16.11.2017 16:00:00 8,7 7,8 36 19 44 24 SSW 1018,8 17 0,0
16.11.2017 15:00:00 8,7 7,9 28 15 42 23 S 1019,5 9 0,0
16.11.2017 14:00:00 8,7 7,9 29 16 42 23 SSW 1020,3 9 0,0
16.11.2017 13:00:00 8,4 7,8 29 16 37 20 SSW 1021,0 13 0,0
16.11.2017 12:00:00 8,0 7,4 22 12 33 18 S 1021,7 17 0,1
16.11.2017 11:00:00 7,9 7,1 26 14 35 19 S 1022,7 13 0,2
16.11.2017 10:00:00 8,0 7,4 23 13 29 16 SSW 1022,8 19 0,0
16.11.2017 09:00:00 7,6 7,2 19 10 26 14 SSW 1023,0 15 0,0
16.11.2017 08:00:00 6,5 6,1 16 9 22 12 SSW 1023,0 4,7 0,0
16.11.2017 07:00:00 5,5 5,1 13 7 16 8 SSW 1023,1 9 0,0
16.11.2017 06:00:00 6,2 5,6 11 6 15 8 SW 1023,3 12 0,0
16.11.2017 05:00:00 6,5 5,9 11 6 13 7 SW 1023,6 16 0,0
16.11.2017 04:00:00 5,8 5,2 10 5 11 6 SW 1023,7 10 0,0
16.11.2017 03:00:00 6,9 6,2 12 6 16 9 WSW 1023,8 11 0,0
16.11.2017 02:00:00 7,0 6,4 14 7 16 9 WSW 1023,9 19 0,0
16.11.2017 01:00:00 6,8 6,2 13 7 16 9 W 1023,7 12 0,0
16.11.2017 00:00:00 6,9 6,3 16 9 23 12 W 1024,1 10 0,0
15.11.2017 23:00:00 7,2 6,6 17 9 25 14 W 1024,1 12 0,0
15.11.2017 22:00:00 7,3 6,6 21 11 26 14 W 1023,8 10 0,0
15.11.2017 21:00:00 7,8 7,0 20 11 27 15 W 1023,4 16 0,0
15.11.2017 20:00:00 7,8 7,0 20 11 30 16 W 1022,9 14 0,0
15.11.2017 19:00:00 7,9 7,1 22 12 30 16 W 1022,8 14 0,0
15.11.2017 18:00:00 7,8 7,0 24 13 35 19 W 1022,3 12 0,0
15.11.2017 17:00:00 8,0 7,2 27 15 34 18 W 1022,1 15 0,0
15.11.2017 16:00:00 8,3 7,4 27 15 34 19 WSW 1021,9 21 0,0
15.11.2017 15:00:00 8,6 7,2 24 13 30 16 WSW 1021,6 29 0,0
15.11.2017 14:00:00 9,0 7,3 24 13 30 16 WSW 1021,5 43 0,0
15.11.2017 13:00:00 8,7 7,2 24 13 29 16 WSW 1021,3 32 0,0
15.11.2017 12:00:00 8,6 7,2 25 13 32 17 WSW 1021,0 25 0,0
15.11.2017 11:00:00 8,2 7,0 27 15 35 19 WSW 1021,1 30 0,0
15.11.2017 10:00:00 8,1 6,9 29 15 35 19 WSW 1020,8 35 0,0
15.11.2017 09:00:00 7,9 7,0 29 16 35 19 WSW 1020,5 18 0,0
15.11.2017 08:00:00 7,7 6,9 30 16 42 23 WSW 1020,0 16 0,0
15.11.2017 07:00:00 7,6 6,7 32 17 40 22 WSW 1019,7 17 0,0
15.11.2017 06:00:00 7,6 6,5 28 15 39 21 WSW 1019,3 20 0,0
15.11.2017 05:00:00 7,4 6,2 29 16 40 21 WSW 1019,1 20 0,0
15.11.2017 04:00:00 7,2 6,0 29 16 44 24 W 1018,9 21 0,0
15.11.2017 03:00:00 7,3 5,9 36 19 44 24 W 1019,2 22 0,0
15.11.2017 02:00:00 7,7 6,3 36 19 48 26 W 1018,7 20 0,0
15.11.2017 01:00:00 7,5 6,3 37 20 49 26 W 1018,2 17 0,0
15.11.2017 00:00:00 7,4 6,2 39 21 47 25 W 1017,9 17 0,0
14.11.2017 23:00:00 7,5 6,1 36 20 44 24 W 1017,1 17 0,0
14.11.2017 22:00:00 8,2 6,3 36 19 49 26 W 1016,8 20 0,0
14.11.2017 21:00:00 8,3 6,4 38 20 51 28 W 1016,0 19 0,0
14.11.2017 20:00:00 8,5 6,5 39 21 54 29 W 1015,0 20 0,0
14.11.2017 19:00:00 8,7 6,7 44 24 59 32 W 1014,1 18 0,0
14.11.2017 18:00:00 8,5 7,0 45 25 58 31 W 1013,4 26 0,0
14.11.2017 17:00:00 8,1 7,0 42 23 55 30 WSW 1012,7 26 0,0
14.11.2017 16:00:00 7,6 6,4 45 24 63 34 WSW 1012,3 28 0,0
14.11.2017 15:00:00 7,2 6,0 51 27 67 36 SW 1012,0 28 0,0
14.11.2017 14:00:00 6,4 5,5 51 28 66 36 SW 1012,3 14 0,1
14.11.2017 13:00:00 6,7 5,6 42 23 61 33 SSW 1012,5 22 0,3
14.11.2017 12:00:00 6,6 5,4 42 23 55 30 SW 1013,8 14 0,6
14.11.2017 11:00:00 6,5 5,0 42 23 51 28 SW 1014,8 16 0,4
14.11.2017 10:00:00 6,9 4,6 39 21 45 24 SW 1015,5 24 0,0
14.11.2017 09:00:00 6,8 4,5 34 18 41 22 SW 1015,7 47 0,0
14.11.2017 08:00:00 6,6 4,3 31 17 40 22 WSW 1015,7 38 0,0
14.11.2017 07:00:00 6,2 3,9 33 18 41 22 WSW 1015,9 41 0,0
14.11.2017 06:00:00 5,9 3,4 32 17 41 22 WSW 1015,9 44 0,0
14.11.2017 05:00:00 5,8 3,3 29 16 40 22 W 1016,0 47 0,0
14.11.2017 04:00:00 6,0 3,2 31 17 37 20 WSW 1016,0 50 0,0
14.11.2017 03:00:00 6,1 3,1 23 13 32 17 WSW 1016,3 46 0,0
14.11.2017 02:00:00 5,8 2,4 24 13 36 19 W 1016,7 50 0,0
14.11.2017 01:00:00 5,7 2,9 26 14 35 19 W 1016,7 45 0,0
14.11.2017 00:00:00 5,9 2,5 20 11 27 15 W 1016,6 45 0,0
13.11.2017 23:00:00 5,6 2,6 18 10 24 13 W 1016,3 50 0,0
13.11.2017 22:00:00 5,4 2,7 19 11 25 13 W 1016,3 50 0,0
13.11.2017 21:00:00 5,5 2,0 18 10 26 14 WNW 1016,0 50 0,0
13.11.2017 20:00:00 5,3 1,4 19 10 25 13 NW 1015,9 50 0,0
13.11.2017 19:00:00 4,6 0,6 19 11 30 16 NNW 1015,6 42 -

tt = Température de l'air
td = dewpoint
ff = Vitesse du vent
fx = gusts
dd = Direction du vent
ppp = reduced air pressure
vv = visibility
rr = Quantités de précipitations

stations d'obs. à proximité